| time (UTC) | temp F | wind direction | speed knots | gust knots | rain 1hr in | rain 24hr in | rain mn in | humidity % | barometer mb |
| 20260904101611 | 81 | 62 | 6.1 | 13.0 | 0.00 | 0.00 | 0.00 | 52 | 1016.7 |
| 20260904100519 | 81 | 34 | 5.2 | 7.8 | 0.00 | 0.00 | 0.00 | 52 | 1016.7 |
| 20260904095539 | 81 | 27 | 6.1 | 19.1 | 0.00 | 0.00 | 0.00 | 54 | 1016.7 |
| 20260904094519 | 80 | 15 | 5.2 | 7.8 | 0.00 | 0.00 | 0.00 | 55 | 1016.8 |
| 20260904093539 | 80 | 2 | 3.5 | 6.1 | 0.00 | 0.00 | 0.00 | 57 | 1016.8 |
| 20260904092531 | 80 | 9 | 4.3 | 9.6 | 0.00 | 0.00 | 0.00 | 55 | 1016.9 |
| 20260904091519 | 80 | 16 | 5.2 | 7.8 | 0.00 | 0.00 | 0.00 | 57 | 1016.9 |
| 20260904090539 | 79 | 26 | 2.6 | 4.3 | 0.00 | 0.00 | 0.00 | 58 | 1017.0 |
| 20260904085519 | 79 | 17 | 4.3 | 7.8 | 0.00 | 0.00 | 0.00 | 59 | 1017.0 |
| 20260904084531 | 79 | 38 | 4.3 | 7.8 | 0.00 | 0.00 | 0.00 | 59 | 1017.0 |
| 20260904083519 | 79 | 322 | 3.5 | 6.1 | 0.00 | 0.00 | 0.00 | 59 | 1017.1 |
| 20260904082519 | 79 | 29 | 4.3 | 7.8 | 0.00 | 0.00 | 0.00 | 61 | 1017.1 |
| 20260904081543 | 78 | 13 | 4.3 | 6.1 | 0.00 | 0.00 | 0.00 | 63 | 1017.1 |
| 20260904080519 | 78 | 19 | 4.3 | 7.8 | 0.00 | 0.00 | 0.00 | 63 | 1017.2 |
| 20260904075519 | 78 | 347 | 3.5 | 6.1 | 0.00 | 0.00 | 0.00 | 64 | 1017.2 |
| 20260904074539 | 78 | 319 | 1.7 | 6.1 | 0.00 | 0.00 | 0.00 | 64 | 1017.2 |
| 20260904073603 | 79 | 324 | 1.7 | 6.1 | 0.00 | 0.00 | 0.00 | 64 | 1017.2 |
| 20260904072623 | 79 | 317 | 0.9 | 3.5 | 0.00 | 0.00 | 0.00 | 64 | 1017.2 |
| 20260904071539 | 78 | 315 | 0.9 | 1.7 | 0.00 | 0.00 | 0.00 | 66 | 1017.0 |
| 20260904070519 | 77 | 23 | 1.7 | 6.1 | 0.00 | 0.00 | 0.00 | 67 | 1017.0 |
| 20260904065519 | 76 | 26 | 1.7 | 3.5 | 0.00 | 0.00 | 0.00 | 69 | 1016.9 |
| 20260904064531 | 76 | 31 | 2.6 | 4.3 | 0.00 | 0.00 | 0.00 | 68 | 1016.9 |
| 20260904063519 | 76 | 10 | 2.6 | 3.5 | 0.00 | 0.00 | 0.00 | 68 | 1016.9 |
| 20260904062519 | 75 | 28 | 2.6 | 6.1 | 0.00 | 0.00 | 0.00 | 70 | 1016.8 |
| 20260904061539 | 74 | 26 | 2.6 | 6.1 | 0.00 | 0.00 | 0.00 | 71 | 1016.8 |
| 20260904060543 | 74 | 14 | 3.5 | 6.1 | 0.00 | 0.00 | 0.00 | 71 | 1016.8 |
| 20260904055520 | 73 | 27 | 3.5 | 6.1 | 0.00 | 0.00 | 0.00 | 72 | 1016.7 |
| 20260904054519 | 73 | 21 | 3.5 | 6.1 | 0.00 | 0.00 | 0.00 | 74 | 1016.6 |
| 20260904053520 | 72 | 28 | 4.3 | 6.1 | 0.00 | 0.00 | 0.00 | 75 | 1016.5 |
| 20260904052519 | 72 | 26 | 3.5 | 6.1 | 0.00 | 0.00 | 0.00 | 74 | 1016.5 |
| 20260904051539 | 71 | 14 | 3.5 | 6.1 | 0.00 | 0.00 | 0.00 | 76 | 1016.5 |
| 20260904050519 | 70 | 347 | 3.5 | 6.1 | 0.00 | 0.00 | 0.00 | 78 | 1016.5 |
| 20260904045539 | 69 | 349 | 3.5 | 6.1 | 0.00 | 0.00 | 0.00 | 79 | 1016.4 |
| 20260904044559 | 68 | 334 | 3.5 | 6.1 | 0.00 | 0.00 | 0.00 | 81 | 1016.4 |
| 20260904043519 | 67 | 319 | 2.6 | 6.1 | 0.00 | 0.00 | 0.00 | 82 | 1016.4 |
| 20260904042519 | 66 | 332 | 3.5 | 7.8 | 0.00 | 0.00 | 0.00 | 84 | 1016.4 |
| 20260904041519 | 65 | 328 | 3.5 | 6.1 | 0.00 | 0.00 | 0.00 | 85 | 1016.2 |
| 20260904040531 | 64 | 338 | 3.5 | 6.1 | 0.00 | 0.00 | 0.00 | 85 | 1016.1 |
| 20260904035519 | 64 | 342 | 4.3 | 6.1 | 0.00 | 0.00 | 0.00 | 85 | 1016.2 |
| 20260904034539 | 64 | 342 | 4.3 | 6.1 | 0.00 | 0.00 | 0.00 | 86 | 1016.1 |
| 20260904033519 | 64 | 348 | 3.5 | 3.5 | 0.00 | 0.00 | 0.00 | 86 | 1015.9 |
| 20260904032519 | 64 | 344 | 2.6 | 3.5 | 0.00 | 0.00 | 0.00 | 86 | 1015.8 |
| 20260904031519 | 65 | 339 | 3.5 | 6.1 | 0.00 | 0.00 | 0.00 | 84 | 1015.7 |
| 20260904030531 | 65 | 344 | 3.5 | 6.1 | 0.00 | 0.00 | 0.00 | 83 | 1015.6 |
| 20260904025531 | 65 | 338 | 2.6 | 6.1 | 0.00 | 0.00 | 0.00 | 82 | 1015.6 |
| 20260904024519 | 65 | 338 | 2.6 | 6.1 | 0.00 | 0.00 | 0.00 | 83 | 1015.5 |
| 20260904023531 | 65 | 338 | 1.7 | 3.5 | 0.00 | 0.00 | 0.00 | 84 | 1015.5 |
| 20260904022519 | 65 | 338 | 2.6 | 3.5 | 0.00 | 0.00 | 0.00 | 84 | 1015.5 |
| 20260904021519 | 65 | 338 | 2.6 | 6.1 | 0.00 | 0.00 | 0.00 | 84 | 1015.5 |
| 20260904020519 | 65 | 338 | 3.5 | 6.1 | 0.00 | 0.00 | 0.00 | 85 | 1015.6 |
| 20260904015519 | 65 | 341 | 3.5 | 6.1 | 0.00 | 0.00 | 0.00 | 85 | 1015.6 |
| 20260904014520 | 65 | 338 | 3.5 | 6.1 | 0.00 | 0.00 | 0.00 | 85 | 1015.6 |
| 20260904013520 | 65 | 339 | 2.6 | 3.5 | 0.00 | 0.00 | 0.00 | 85 | 1015.6 |
| 20260904012600 | 65 | 339 | 2.6 | 6.1 | 0.00 | 0.00 | 0.00 | 85 | 1015.6 |
| 20260904011539 | 65 | 350 | 1.7 | 3.5 | 0.00 | 0.00 | 0.00 | 84 | 1015.6 |
| 20260904010540 | 65 | 338 | 2.6 | 6.1 | 0.00 | 0.00 | 0.00 | 84 | 1015.5 |
| 20260904005519 | 65 | 339 | 2.6 | 6.1 | 0.00 | 0.00 | 0.00 | 85 | 1015.6 |
| 20260904004519 | 65 | 339 | 3.5 | 4.3 | 0.00 | 0.00 | 0.00 | 85 | 1015.7 |
| 20260904003539 | 65 | 346 | 3.5 | 6.1 | 0.00 | 0.00 | 0.00 | 86 | 1015.7 |
| 20260904002522 | 65 | 356 | 2.6 | 6.1 | 0.00 | 0.00 | 0.00 | 87 | 1015.7 |
| 20260904001552 | 65 | 359 | 2.6 | 6.1 | 0.00 | 0.00 | 0.00 | 88 | 1015.7 |
| 20260904000519 | 65 | 14 | 2.6 | 6.1 | 0.00 | 0.00 | 0.00 | 89 | 1015.8 |
| 20260903235519 | 65 | 17 | 1.7 | 3.5 | 0.00 | 0.00 | 0.00 | 89 | 1015.9 |
| 20260903234520 | 65 | 11 | 2.6 | 6.1 | 0.00 | 0.00 | 0.00 | 91 | 1015.9 |
| 20260903233519 | 65 | 19 | 1.7 | 3.5 | 0.00 | 0.00 | 0.00 | 92 | 1015.8 |
| 20260903232600 | 65 | 23 | 1.7 | 3.5 | 0.00 | 0.00 | 0.00 | 92 | 1015.9 |
| 20260903231519 | 65 | 13 | 1.7 | 3.5 | 0.00 | 0.00 | 0.00 | 93 | 1015.8 |
| 20260903230519 | 65 | 11 | 2.6 | 3.5 | 0.00 | 0.00 | 0.00 | 95 | 1015.9 |
| 20260903225551 | 65 | 17 | 1.7 | 3.5 | 0.00 | 0.00 | 0.00 | 97 | 1016.0 |
| 20260903224519 | 65 | 13 | 1.7 | 3.5 | 0.00 | 0.00 | 0.00 | 98 | 1016.1 |
| 20260903223519 | 65 | 23 | 0.9 | 3.5 | 0.00 | 0.00 | 0.00 | 99 | 1016.1 |
| 20260903222520 | 65 | 23 | 1.7 | 3.5 | 0.00 | 0.00 | 0.00 | 99 | 1016.1 |
| 20260903221539 | 65 | 23 | 0.9 | 3.5 | 0.00 | 0.00 | 0.00 | 99 | 1016.2 |
| 20260903220519 | 65 | 87 | 0.9 | 1.7 | 0.00 | 0.00 | 0.00 | 99 | 1016.3 |
| 20260903215531 | 65 | 113 | 0.0 | 1.7 | 0.00 | 0.00 | 0.00 | 99 | 1016.3 |
| 20260903214519 | 65 | 0.0 | 0.0 | 0.00 | 0.00 | 0.00 | 99 | 1016.3 | |
| 20260903213519 | 65 | 0.0 | 0.0 | 0.00 | 0.00 | 0.00 | 99 | 1016.4 | |
| 20260903212521 | 65 | 0.0 | 0.0 | 0.00 | 0.00 | 0.00 | 99 | 1016.3 | |
| 20260903211519 | 65 | 0.0 | 0.0 | 0.00 | 0.00 | 0.00 | 99 | 1016.2 | |
| 20260903210520 | 65 | 113 | 0.0 | 0.9 | 0.00 | 0.00 | 0.00 | 99 | 1016.3 |
| 20260903205519 | 66 | 113 | 0.0 | 0.9 | 0.00 | 0.00 | 0.00 | 99 | 1016.3 |
| 20260903204519 | 66 | 0.0 | 0.0 | 0.00 | 0.00 | 0.00 | 99 | 1016.3 | |
| 20260903203519 | 66 | 113 | 0.0 | 1.7 | 0.00 | 0.00 | 0.00 | 99 | 1016.3 |
| 20260903202539 | 66 | 113 | 0.9 | 1.7 | 0.00 | 0.00 | 0.00 | 99 | 1016.3 |
| 20260903201539 | 66 | 135 | 0.0 | 1.7 | 0.00 | 0.00 | 0.00 | 99 | 1016.3 |
| 20260903200519 | 66 | 0.0 | 0.0 | 0.00 | 0.00 | 0.00 | 98 | 1016.4 | |
| 20260903195519 | 66 | 0.0 | 0.0 | 0.00 | 0.00 | 0.00 | 98 | 1016.4 | |
| 20260903194539 | 66 | 0.0 | 0.0 | 0.00 | 0.00 | 0.00 | 98 | 1016.4 | |
| 20260903193539 | 67 | 135 | 0.0 | 1.7 | 0.00 | 0.00 | 0.00 | 98 | 1016.4 |
| 20260903192531 | 67 | 0.0 | 0.0 | 0.00 | 0.00 | 0.00 | 98 | 1016.5 | |
| 20260903191520 | 67 | 0.0 | 0.0 | 0.00 | 0.00 | 0.00 | 97 | 1016.5 | |
| 20260903190519 | 67 | 0.0 | 0.0 | 0.00 | 0.00 | 0.00 | 97 | 1016.4 | |
| 20260903185520 | 67 | 0.0 | 0.0 | 0.00 | 0.00 | 0.00 | 97 | 1016.4 | |
| 20260903184519 | 68 | 0.0 | 0.0 | 0.00 | 0.00 | 0.00 | 96 | 1016.3 | |
| 20260903183540 | 69 | 0.0 | 0.0 | 0.00 | 0.00 | 0.00 | 96 | 1016.3 | |
| 20260903182520 | 69 | 0.0 | 0.0 | 0.00 | 0.00 | 0.00 | 96 | 1016.2 | |
| 20260903181520 | 69 | 0.0 | 0.0 | 0.00 | 0.00 | 0.00 | 95 | 1016.2 | |
| 20260903180519 | 69 | 0.0 | 0.0 | 0.00 | 0.00 | 0.00 | 95 | 1016.3 | |
| 20260903175519 | 70 | 0.0 | 0.0 | 0.00 | 0.00 | 0.00 | 95 | 1016.2 | |
| 20260903174519 | 70 | 135 | 0.0 | 1.7 | 0.00 | 0.00 | 0.00 | 95 | 1016.2 |
| 20260903173531 | 71 | 0.0 | 0.0 | 0.00 | 0.00 | 0.00 | 95 | 1016.2 | |
| 20260903172520 | 71 | 0.0 | 0.0 | 0.00 | 0.00 | 0.00 | 94 | 1016.1 | |
| 20260903171519 | 71 | 0.0 | 0.0 | 0.00 | 0.00 | 0.00 | 93 | 1016.0 | |
| 20260903170531 | 72 | 135 | 0.9 | 1.7 | 0.00 | 0.00 | 0.00 | 92 | 1016.0 |
| 20260903165620 | 72 | 135 | 0.9 | 1.7 | 0.00 | 0.00 | 0.00 | 91 | 1016.0 |
| 20260903164520 | 72 | 131 | 1.7 | 3.5 | 0.00 | 0.00 | 0.00 | 90 | 1016.0 |
| 20260903163519 | 72 | 135 | 1.7 | 3.5 | 0.00 | 0.00 | 0.00 | 89 | 1015.9 |
| 20260903162532 | 72 | 135 | 1.7 | 3.5 | 0.00 | 0.00 | 0.00 | 88 | 1016.0 |
| 20260903161520 | 72 | 113 | 1.7 | 3.5 | 0.00 | 0.00 | 0.00 | 86 | 1015.9 |
| 20260903160540 | 73 | 113 | 0.9 | 3.5 | 0.00 | 0.00 | 0.00 | 85 | 1015.8 |
| 20260903155519 | 73 | 113 | 1.7 | 1.7 | 0.00 | 0.00 | 0.00 | 84 | 1015.8 |
| 20260903154652 | 73 | 113 | 0.0 | 1.7 | 0.00 | 0.00 | 0.00 | 82 | 1015.8 |
| 20260903153519 | 74 | 115 | 1.7 | 3.5 | 0.00 | 0.00 | 0.00 | 82 | 1015.8 |
| 20260903152531 | 75 | 203 | 0.9 | 1.7 | 0.00 | 0.00 | 0.00 | 78 | 1016.0 |
| 20260903151519 | 75 | 182 | 1.7 | 3.5 | 0.00 | 0.00 | 0.00 | 77 | 1016.0 |
| 20260903150520 | 75 | 80 | 0.9 | 3.5 | 0.00 | 0.00 | 0.00 | 76 | 1016.2 |
| 20260903145519 | 74 | 53 | 1.7 | 7.8 | 0.00 | 0.00 | 0.00 | 79 | 1016.3 |
| 20260903144520 | 74 | 90 | 0.9 | 3.5 | 0.00 | 0.00 | 0.00 | 79 | 1016.1 |
| 20260903143520 | 74 | 113 | 1.7 | 1.7 | 0.00 | 0.00 | 0.00 | 77 | 1016.2 |
| 20260903142519 | 74 | 115 | 1.7 | 3.5 | 0.00 | 0.00 | 0.00 | 75 | 1016.2 |
| 20260903141520 | 74 | 135 | 0.9 | 1.7 | 0.00 | 0.00 | 0.00 | 76 | 1016.0 |
| 20260903140559 | 74 | 159 | 0.9 | 3.5 | 0.00 | 0.00 | 0.00 | 77 | 1015.8 |
| 20260903135600 | 75 | 162 | 1.7 | 3.5 | 0.00 | 0.00 | 0.00 | 76 | 1015.9 |
| 20260903134543 | 75 | 180 | 2.6 | 3.5 | 0.00 | 0.00 | 0.00 | 75 | 1015.9 |
| 20260903133520 | 75 | 120 | 2.6 | 6.1 | 0.00 | 0.00 | 0.00 | 75 | 1015.9 |
| 20260903132520 | 76 | 128 | 1.7 | 3.5 | 0.00 | 0.00 | 0.00 | 72 | 1015.9 |
| 20260903131552 | 76 | 117 | 3.5 | 6.1 | 0.00 | 0.00 | 0.00 | 71 | 1015.8 |
| 20260903130539 | 77 | 124 | 2.6 | 6.1 | 0.00 | 0.00 | 0.00 | 71 | 1015.8 |
| 20260903125519 | 77 | 119 | 2.6 | 3.5 | 0.00 | 0.00 | 0.00 | 72 | 1016.0 |
| 20260903124519 | 77 | 143 | 2.6 | 3.5 | 0.00 | 0.00 | 0.00 | 71 | 1016.1 |
| 20260903123519 | 77 | 150 | 2.6 | 6.1 | 0.00 | 0.00 | 0.00 | 73 | 1016.1 |
| 20260903122520 | 75 | 136 | 3.5 | 7.8 | 0.00 | 0.00 | 0.00 | 75 | 1016.1 |
| 20260903121519 | 76 | 172 | 2.6 | 6.1 | 0.00 | 0.00 | 0.00 | 73 | 1016.1 |
| 20260903120520 | 77 | 182 | 4.3 | 7.8 | 0.00 | 0.00 | 0.00 | 69 | 1016.2 |
| 20260903115540 | 77 | 137 | 2.6 | 6.1 | 0.00 | 0.00 | 0.00 | 70 | 1016.3 |
| 20260903114520 | 76 | 141 | 4.3 | 7.8 | 0.00 | 0.00 | 0.00 | 69 | 1016.4 |
| 20260903113519 | 77 | 159 | 3.5 | 7.8 | 0.00 | 0.00 | 0.00 | 66 | 1016.4 |
| 20260903112519 | 77 | 137 | 3.5 | 6.1 | 0.00 | 0.00 | 0.00 | 66 | 1016.5 |
| 20260903111520 | 76 | 140 | 3.5 | 6.1 | 0.00 | 0.00 | 0.00 | 64 | 1016.5 |
| 20260903110519 | 76 | 133 | 4.3 | 6.1 | 0.00 | 0.00 | 0.00 | 62 | 1016.6 |
| 20260903105519 | 77 | 127 | 2.6 | 6.1 | 0.00 | 0.00 | 0.00 | 61 | 1016.7 |
| 20260903104600 | 78 | 125 | 3.5 | 6.1 | 0.00 | 0.00 | 0.00 | 60 | 1016.7 |
| 20260903103532 | 78 | 173 | 3.5 | 6.1 | 0.00 | 0.00 | 0.00 | 59 | 1016.8 |
| 20260903102519 | 78 | 161 | 2.6 | 6.1 | 0.00 | 0.00 | 0.00 | 60 | 1017.0 |